Location: Brede
(50.9167°N, 0.6000°E)
Time: 03:30:49
(UTC+00:00)

IDEFIX/ARIANE 42P - Pass Details

Date: 08 August 2020
Orbit: 786 x 802 km, 98.4° (Epoch: 27 September)

Event Time Altitude Azimuth Distance (km) Brightness Sun altitude
Rises 03:20:00 0° 14° (NNE) 3,293 6.8 -10.5°
Reaches altitude 10° 03:22:20 10° 16° (NNE) 2,361 6.0 -10.2°
Maximum altitude 03:27:34 85° 104° (ESE) 799 2.6 -9.6°
Drops below altitude 10° 03:32:46 10° 194° (SSW) 2,352 4.5 -9.0°
Enters shadow 03:33:55 - 195° (SSW) 2,811 4.9 -8.8°
